Location: Capdenac
(44.5704°N, 2.0824°E)
Time: 12:17:19
(UTC+00:00)

Daily predictions for brighter satellites

Satellite Brightness Start Highest point End
(mag) Time Altitude Azimuth Time Altitude Azimuth Time Altitude Azimuth
SL-16 R/B 2.7 18:52:40 10° SW 18:58:18 69° WNW 19:03:59 10° NNE
Terra 3.4 18:56:50 10° ESE 19:00:00 18° ENE 19:03:10 10° NNE
Atlas Centaur 2 4.2 18:57:05 10° SW 19:00:30 16° S 19:04:20 10° SSE
Meteor 1-22 Rocket 4.2 18:57:33 10° S 19:03:05 70° E 19:08:53 10° NNE
Cosmos 1898 Rocket 3.8 18:58:44 10° S 19:03:42 45° ESE 19:08:39 10° NNE
CZ-4 R/B 2.3 19:01:24 10° SE 19:04:40 27° ENE 19:07:54 10° N
PSLV R/B 4.1 19:01:28 10° S 19:05:27 58° W 19:09:30 10° NNW
Resurs 01 Rocket 2.4 19:02:11 10° S 19:06:29 55° W 19:10:48 10° NNW
Okean O Rocket 3.7 19:08:04 10° ENE 19:09:16 11° ENE 19:10:29 10° NE
Cosmos 2333 4.1 19:07:33 10° SSW 19:13:05 68° ESE 19:18:39 10° NNE
Cosmos 372 Rocket 3.9 19:09:18 10° SSW 19:14:29 75° ESE 19:19:43 10° NNE
Tiangong -0.1 19:12:20 10° WSW 19:14:42 20° SSW 19:17:03 10° SSE
Meteor 1-24 Rocket 3.7 19:09:33 10° N 19:15:00 69° ENE 19:20:36 10° SSE
Cosmos 1538 Rocket 4.0 19:10:03 10° NNW 19:15:11 71° ENE 19:20:19 10° SSE
CENTAUR R/B 4.1 19:09:00 10° NW 19:17:18 56° WSW 19:26:30 10° SSE
Cosmos 1844 4.5 19:11:43 10° NNW 19:17:21 56° WSW 19:22:59 10° S
Cosmos 2219 Rocket 2.2 19:13:31 10° S 19:18:57 57° ESE 19:24:24 10° NNE
SPOT 5 2.8 19:15:11 10° SSE 19:19:56 66° ENE 19:24:29 10° N
CZ-4B R/B 3.8 19:18:50 10° SSE 19:22:17 52° ENE 19:25:54 10° N
Cosmos 2074 Rocket 4.0 19:16:07 10° S 19:22:19 75° E 19:28:34 10° NNE
Meteor 1-31 Rocket 2.7 19:21:31 10° SSE 19:24:56 53° ENE 19:28:24 10° N
Cosmos 1937 Rocket 3.7 19:20:07 10° S 19:25:13 51° ESE 19:30:20 10° NNE
Cosmos 923 Rocket 4.4 19:29:34 10° N 19:34:43 47° ENE 19:38:50 15° SE
USA 234 3.6 19:29:41 10° NE 19:36:12 71° NNW 19:42:42 10° WSW
COSMOS 2428 3.6 19:31:48 10° SSE 19:36:26 26° ESE 19:41:06 10° NE
IRAS Rocket 4.2 19:32:44 10° SSE 19:38:15 90° WSW 19:43:46 10° NNW
Cosmos 1953 3.0 19:35:20 10° SSW 19:38:48 51° W 19:42:20 10° N
Meteor 1-15 Rocket 4.3 19:33:23 10° S 19:38:56 84° W 19:44:32 10° N
PAYLOAD B 4.4 19:33:57 10° SSE 19:39:17 55° ENE 19:44:39 10° N
CZ-4B R/B 3.6 19:35:07 13° SE 19:39:50 46° ENE 19:45:10 10° N
CZ-4B DEB 4.2 19:35:01 10° SSE 19:40:24 65° ENE 19:45:50 10° N
CSL-04 Rocket 3.8 19:35:10 10° SSE 19:40:42 87° WSW 19:46:18 10° NNW
Cosmos 2278 Rocket 3.7 19:40:31 10° N 19:44:48 21° NE 19:47:49 14° E
Cosmos 1610 Rocket 4.5 19:41:04 10° S 19:47:19 71° E 19:53:33 10° NNE
Cosmos 2333 Rocket 3.9 19:42:34 10° WSW 19:47:46 36° NW 19:52:59 10° NNE
NOSS 3-2 (C) 4.2 19:42:38 10° NNW 19:49:53 64° NE 19:56:23 19° SE
Cosmos 1703 Rocket 3.4 19:50:49 10° N 19:55:09 78° E 19:58:41 15° SSE
BREEZE-M DEB (TANK) 3.2 19:53:48 10° WNW 19:56:08 36° N 19:59:32 13° ENE
Geosat 3.9 19:51:07 10° NNE 19:56:09 85° ESE 20:01:09 10° SSW
Cosmos 1470 Rocket 4.0 19:51:55 10° SSW 19:56:16 63° W 20:00:36 10° N
Spot 2 Rocket 4.3 19:53:55 22° ESE 19:56:17 34° ENE 20:00:46 10° N
Lacrosse 5 rocket 0.5 19:54:43 10° SW 19:57:55 75° SE 20:00:40 13° NE
NOSS 3-2 (A) 4.5 19:50:50 10° NW 19:58:17 66° WSW 20:06:45 11° SSE
ARIANE 6 FM1 Upper Stage 3.8 19:55:14 10° WSW 19:59:13 45° NW 20:03:08 10° NNE
Meteor 2-5 Rocket 4.3 19:54:38 10° NNW 20:00:03 57° W 20:05:28 10° S
ERS-1 Rocket 2.9 19:57:46 16° SSE 20:01:48 76° ENE 20:06:48 10° N
Cosmos 1933 Rocket 3.4 19:59:23 10° S 20:03:41 68° E 20:08:04 10° NNE
Nadezhda 3 Rocket 4.3 19:59:19 10° NNW 20:05:27 69° W 20:11:32 10° S
Cosmos 2218 Rocket 4.3 20:06:05 20° SSE 20:10:01 44° E 20:15:47 10° NNE
Cosmos 1943 Rocket 3.0 20:05:31 10° NNW 20:10:45 36° NE 20:12:58 27° E
Helios 1A Rocket 3.7 20:09:24 10° N 20:12:27 39° WNW 20:15:28 10° SW
Meteor 1-12 Rocket 4.3 20:07:05 10° S 20:13:02 89° W 20:19:07 10° N
YAOGAN 11 4.4 20:09:03 10° NNE 20:13:04 41° E 20:13:56 37° SE
In-Cosmos 22 Rocket 4.1 20:11:06 10° N 20:16:26 65° ENE 20:19:03 30° SSE
Cosmos 1733 Rocket 4.3 20:18:20 25° ENE 20:18:20 25° ENE 20:21:13 10° NNE
OPS 6432 4.3 20:16:10 10° NW 20:19:31 75° SW 20:20:04 57° S
CZ-4B R/B 4.5 20:20:21 26° E 20:21:06 27° ENE 20:25:07 10° N
Okean-O 2.8 20:20:35 41° ESE 20:21:38 50° ENE 20:25:53 10° N
Cosmos 494 Rocket 3.9 20:19:19 10° NNW 20:24:29 71° ENE 20:26:29 38° SE
Cosmos 1821 Rocket 4.4 20:22:24 31° SE 20:24:31 41° E 20:30:21 10° NNE
Cosmos 962 Rocket 4.4 20:19:16 10° S 20:25:32 87° E 20:31:46 10° N
Cosmos 2360 Rocket 4.2 20:21:49 10° WSW 20:26:42 30° NW 20:31:37 10° N
Cosmos 1869 Rocket 3.5 20:30:47 21° SSW 20:33:39 81° W 20:38:05 10° N
ADEOS 3.9 20:32:48 22° S 20:36:08 64° WSW 20:41:19 10° NNW
Terra 2.3 20:34:16 23° S 20:37:05 56° W 20:41:43 10° NNW
CZ-4 R/B 3.5 20:35:37 10° SSW 20:38:39 22° W 20:41:41 10° NW
Aureole 3 4.3 20:36:16 10° N 20:40:03 39° ENE 20:40:03 39° ENE
BREEZE-M DEB (TANK) 4.3 20:38:36 10° WSW 20:42:36 86° NNW 20:59:33 10° ENE
Okean O Rocket 1.5 20:43:57 59° S 20:44:46 87° WSW 20:49:09 10° NNW
Cosmos 2237 Rocket 2.8 20:47:31 37° E 20:47:31 37° E 20:51:46 10° NE
Cosmos 2242 Rocket 3.8 20:42:06 10° N 20:46:21 52° ENE 20:46:21 52° ENE
Cosmos 1980 4.1 20:47:57 42° E 20:47:57 42° E 20:52:37 10° NE
SL-08 R/B 3.8 20:44:03 10° N 20:48:52 61° WNW 20:53:41 10° SSW
Cosmos 2322 3.9 20:44:44 10° SSW 20:50:26 74° WNW 20:56:11 10° NNE
CZ-4B R/B 3.7 20:51:35 36° NNE 20:51:35 36° NNE 20:54:01 10° N
ASTEX 1 3.4 20:50:47 58° E 20:51:01 59° E 20:55:51 10° N
Cosmos 2341 Rocket 4.1 20:46:43 13° SSW 20:52:20 78° W 20:58:38 10° N
Meteor 1-21 Rocket 4.2 20:53:45 10° NNW 20:59:21 77° W 21:01:08 45° S
Cosmos 1680 Rocket 4.4 20:55:47 10° NNW 21:00:42 44° WSW 21:02:37 31° SSW
SPOT 3 Rocket 3.5 21:02:11 64° E 21:02:33 67° ENE 21:07:42 10° N
Cosmos 2219 Rocket 4.4 20:58:40 10° WSW 21:03:14 25° NW 21:07:50 10° N
Meteor 2-21 Rocket 4.3 21:08:12 10° N 21:14:18 68° E 21:14:50 64° ESE
USA 245 4.0 21:17:16 54° NNW 21:17:16 54° NNW 21:20:51 10° NNW
Cosmos 2369 Rocket 4.0 21:16:33 10° N 21:20:19 18° NE 21:20:57 18° NE
COSMOS 2428 3.5 21:14:47 10° SW 21:20:20 50° WNW 21:25:56 10° NNE
NOSS 0 Rocket 4.0 21:16:59 10° SSW 21:23:13 74° WNW 21:29:29 10° NNE
Ariane Rocket 3.0 21:26:52 75° N 21:26:52 75° N 21:31:31 10° NNW
Cosmos 1727 Rocket 3.9 21:21:23 10° N 21:27:47 90° E 21:28:32 71° S
Cosmos 2278 Rocket 2.2 21:23:47 10° NNW 21:29:28 73° WSW 21:29:39 73° SW
USA 238 DEB 3.9 21:23:12 10° NW 21:30:40 78° NE 21:32:16 60° ESE
USA 238 3.9 21:23:22 10° NW 21:30:50 77° NE 21:32:26 60° ESE
Lacrosse 5 rocket 3.7 21:32:36 10° WNW 21:34:04 16° NW 21:34:04 16° NW
Meteor 2-8 Rocket 4.3 21:47:10 80° W 21:47:18 80° W 21:53:24 10° N
Cosmos 1656 Rocket 4.3 21:45:55 10° NNW 21:50:17 46° NNE 21:50:17 46° NNE
Cosmos 1943 Rocket 3.2 21:49:16 10° NW 21:54:28 38° WSW 21:54:29 38° WSW
SL-16 R/B 4.1 21:58:05 19° NE 21:58:05 19° NE 21:59:44 10° NE
SeaSat 1 3.3 21:59:30 44° N 21:59:30 44° N 22:03:01 10° NNW
Cosmos 1934 Rocket 4.1 22:03:44 71° NNE 22:03:44 71° NNE 22:09:17 10° N
Cosmos 2123 Rocket 4.0 21:58:04 10° N 22:03:50 77° NNW 22:03:50 77° NNW
USA 59 Rocket 2.4 22:02:04 10° NNW 22:02:48 16° NNW 22:02:48 16° NNW
NOSS 3-4 (A) 3.8 22:10:29 51° NW 22:10:42 51° NW 22:16:23 10° NNE
NOSS 3-4 (C) 3.8 22:11:01 51° NW 22:11:12 52° NW 22:16:54 10° NNE
Cosmos 2237 Rocket 3.6 22:29:12 30° W 22:30:34 34° NW 22:35:46 10° N
Cosmos 2369 Rocket 3.5 22:59:28 10° NNW 23:02:43 36° NNW 23:02:43 36° NNW
SJ 16-02 4.2 23:32:32 10° N 23:33:17 14° N 23:33:17 14° N
SL-16 R/B 3.7 23:39:53 31° NNW 23:39:53 31° NNW 23:43:48 10° N
ACS3 Solar Sail 4.0 23:38:33 10° NE 23:40:25 14° ENE 23:40:25 14° ENE
CZ-2C R/B 4.2 23:44:18 34° NNE 23:44:18 34° NNE 23:47:32 10° N
